This demonstration page uses our WeatherBlox Daily Observations layout. Learn more.

Hourly Observations for April 15, 2017

Temp ( °F °C ) Dew Point ( °F °C ) Humidity (%) Winds ( mph kmh ) Pressure ( in mb ) Visibility ( mi km ) Precip ( " mm )
12:15 am 00:15 Clear 67 19.6 56 13.6 68 68 S 20 31 29.62 1003 10 16.0934 0 0
12:35 am 00:35 Clear 67 19.5 56 13.6 69 69 S 22 35 29.62 1003 10 16.0934 0 0
12:55 am 00:55 Clear 67 19.2 57 13.7 71 71 S 20 31 29.62 1003 10 16.0934 0 0
1:15 am 01:15 Clear 65 18.6 57 13.7 73 73 S 23 37 29.62 1003 10 16.0934 0 0
1:35 am 01:35 Clear 65 18.5 57 14 75 75 S 20 31 29.62 1003 10 16.0934 0 0
1:55 am 01:55 Clear 64 18 57 14 78 78 S 22 35 29.59 1002 10 16.0934 0 0
2:15 am 02:15 Clear 64 17.6 58 14.2 81 81 S 20 31 29.59 1002 10 16.0934 0 0
2:35 am 02:35 Partly Cloudy 64 17.6 58 14.5 82 82 SSW 15 24 29.62 1003 10 16.0934 0 0
2:55 am 02:55 Mostly Cloudy 64 17.6 58 14.7 83 83 SW 10 17 29.65 1004 10 16.0934 0 0
3:15 am 03:15 Cloudy 64 17.6 58 14.7 83 83 S 9 15 29.65 1004 10 16.0934 0 0
3:35 am 03:35 Cloudy 64 17.6 58 14.7 83 83 Calm 29.65 1004 10 16.0934 0 0
3:55 am 03:55 Cloudy 63 17.4 58 14.6 84 84 S 6 9 29.65 1004 10 16.0934 0 0
4:15 am 04:15 Partly Cloudy 62 16.6 58 14.5 88 88 S 8 13 29.68 1005 10 16.0934 0 0
4:35 am 04:35 Clear 61 16 57 14 88 88 SSE 12 19 29.65 1004 10 16.0934 0 0
4:55 am 04:55 Clear 59 15.1 56 13.5 90 90 SSE 7 11 29.68 1005 10 16.0934 0 0
5:15 am 05:15 Clear 58 14.2 55 12.9 92 92 SE 10 17 29.68 1005 10 16.0934 0 0
5:35 am 05:35 Clear 58 14.5 56 13.2 92 92 SE 12 19 29.68 1005 10 16.0934 0 0
5:55 am 05:55 Clear 57 13.8 55 12.7 93 93 ESE 10 17 29.68 1005 10 16.0934 0 0
6:15 am 06:15 Clear 56 13.6 55 12.5 93 93 ESE 10 17 29.68 1005 10 16.0934 0 0
6:35 am 06:35 Mostly Cloudy 57 13.7 55 12.6 93 93 ESE 9 15 29.68 1005 10 16.0934 0 0
6:55 am 06:55 Cloudy 57 13.9 55 12.8 93 93 ESE 7 11 29.68 1005 10 16.0934 0 0
7:15 am 07:15 Mostly Cloudy 57 13.7 55 12.6 93 93 ESE 9 15 29.68 1005 10 16.0934 0 0
7:35 am 07:35 Partly Cloudy 56 13.6 55 12.7 94 94 ESE 8 13 29.68 1005 10 16.0934 0 0
7:55 am 07:55 Mostly Cloudy 57 14.1 56 13.1 94 94 ESE 7 11 29.71 1006 10 16.0934 0 0
8:15 am 08:15 Mostly Cloudy 58 14.5 56 13.5 94 94 ESE 8 13 29.71 1006 10 16.0934 0 0
8:35 am 08:35 Partly Cloudy 59 15.1 57 13.8 92 92 ESE 8 13 29.71 1006 10 16.0934 0 0
8:55 am 08:55 Sunny 60 15.8 57 14 89 89 E 7 11 29.71 1006 10 16.0934 0 0
9:15 am 09:15 Sunny 61 16.2 57 14 87 87 ESE 5 7 29.71 1006 10 16.0934 0 0
9:35 am 09:35 Sunny 63 17 58 14.2 84 84 Calm 29.74 1007 10 16.0934 0 0
9:55 am 09:55 Sunny 64 17.5 57 13.9 80 80 W 3 6 29.71 1006 10 16.0934 0 0
10:35 am 10:35 Partly Cloudy 67 19.2 57 14 72 72 NW 8 13 29.71 1006 10 16.0934 0 0
10:55 am 10:55 Partly Cloudy 67 19.6 58 14.3 72 72 NW 8 13 29.71 1006 10 16.0934 0 0
11:15 am 11:15 Partly Cloudy 68 20.1 58 14.6 71 71 NW 12 19 29.71 1006 10 16.0934 0 0
11:35 am 11:35 Partly Cloudy 69 20.4 58 14.4 69 69 NNW 9 15 29.71 1006 10 16.0934 0 0
11:55 am 11:55 Partly Cloudy 69 20.8 57 14.1 66 66 NNW 12 19 29.74 1007 10 16.0934 0 0
12:15 pm 12:15 Partly Cloudy 71 21.5 58 14.3 64 64 NW 10 17 29.71 1006 10 16.0934 0 0
12:35 pm 12:35 Partly Cloudy 71 21.9 57 13.8 60 60 NNW 12 19 29.68 1005 10 16.0934 0 0
12:55 pm 12:55 Partly Cloudy 72 22 57 14 61 61 NNW 14 22 29.71 1006 10 16.0934 0 0
1:15 pm 13:15 Mostly Cloudy 72 22.1 57 14 60 60 NNW 16 26 29.71 1006 10 16.0934 0 0
1:35 pm 13:35 Cloudy 72 22.1 57 14 60 60 N 14 22 29.71 1006 10 16.0934 0 0
1:55 pm 13:55 Mostly Cloudy 73 22.5 57 13.8 58 58 N 15 24 29.71 1006 10 16.0934 0 0
2:15 pm 14:15 Partly Cloudy 73 22.5 56 13.5 57 57 NNW 13 20 29.71 1006 10 16.0934 0 0
2:35 pm 14:35 Partly Cloudy 72 22.4 56 13.2 56 56 NW 15 24 29.71 1006 10 16.0934 0 0
2:55 pm 14:55 Sunny 73 22.7 55 12.8 54 54 NNW 16 26 29.71 1006 10 16.0934 0 0
3:15 pm 15:15 Sunny 73 23 54 12.2 51 51 N 9 15 29.71 1006 10 16.0934 0 0
3:35 pm 15:35 Sunny 74 23.5 54 12.2 49 49 NNW 12 19 29.71 1006 10 16.0934 0 0
3:55 pm 15:55 Sunny 75 23.8 54 12 48 48 NNW 10 17 29.71 1006 10 16.0934 0 0
4:15 pm 16:15 Sunny 75 24 53 11.6 46 46 N 14 22 29.71 1006 10 16.0934 0 0
4:35 pm 16:35 Sunny 75 24 51 10.6 43 43 N 15 24 29.71 1006 10 16.0934 0 0
4:55 pm 16:55 Sunny 76 24.3 51 10.6 42 42 NW 15 24 29.71 1006 10 16.0934 0 0
5:15 pm 17:15 Sunny 76 24.5 50 10.1 40 40 NNW 14 22 29.71 1006 10 16.0934 0 0
5:35 pm 17:35 Partly Cloudy 76 24.6 49 9.6 39 39 N 14 22 29.71 1006 10 16.0934 0 0
5:55 pm 17:55 Sunny 76 24.5 47 8.4 36 36 NNW 12 19 29.74 1007 10 16.0934 0 0
6:15 pm 18:15 Sunny 76 24.5 47 8.6 36 36 N 9 15 29.74 1007 10 16.0934 0 0
6:35 pm 18:35 Sunny 76 24.3 47 8.6 37 37 N 9 15 29.77 1008 10 16.0934 0 0
6:55 pm 18:55 Sunny 75 23.7 47 8.6 38 38 N 9 15 29.77 1008 10 16.0934 0 0
7:15 pm 19:15 Sunny 73 22.9 48 8.9 41 41 N 12 19 29.77 1008 10 16.0934 0 0
7:35 pm 19:35 Sunny 72 22.4 46 7.7 39 39 N 9 15 29.77 1008 10 16.0934 0 0
7:55 pm 19:55 Sunny 71 21.5 41 5 34 34 N 8 13 29.8 1009 10 16.0934 0 0
8:15 pm 20:15 Sunny 68 19.8 43 5.9 40 40 N 6 9 29.8 1009 10 16.0934 0 0
8:35 pm 20:35 Clear 66 18.9 42 5.3 41 41 N 7 11 29.83 1010 10 16.0934 0 0
8:55 pm 20:55 Clear 63 17.2 42 5.5 46 46 NNW 8 13 29.85 1011 10 16.0934 0 0
9:15 pm 21:15 Clear 63 17.3 39 3.8 41 41 NNW 7 11 29.85 1011 10 16.0934 0 0
9:35 pm 21:35 Clear 61 16.3 39 3.8 44 44 NNW 9 15 29.88 1012 10 16.0934 0 0
9:55 pm 21:55 Clear 60 15.8 38 3.6 44 44 NNW 10 17 29.88 1012 10 16.0934 0 0
10:15 pm 22:15 Clear 60 15.4 39 3.9 46 46 N 10 17 29.94 1014 10 16.0934 0 0
10:35 pm 22:35 Clear 60 15.3 47 8.4 64 64 NNE 20 31 29.94 1014 10 16.0934 0 0
10:55 pm 22:55 Clear 59 15.1 48 8.7 66 66 NNE 18 30 29.94 1014 10 16.0934 0 0
11:15 pm 23:15 Clear 58 14.3 47 8.2 67 67 NNE 17 28 29.97 1015 10 16.0934 0 0
11:35 pm 23:35 Clear 57 13.7 47 8.1 69 69 NNE 18 30 29.97 1015 10 16.0934 0 0
11:55 pm 23:55 Clear 56 13.3 47 8.2 71 71 NNE 17 28 29.97 1015 10 16.0934 0 0

Powered by AerisWeather